Year,Month,Day,Hour,Minute,Value (Times are PST for temperature in C)
2016,04,11,00,00,10.30
2016,04,11,00,01,10.30
2016,04,11,00,02,10.30
2016,04,11,00,03,10.30
2016,04,11,00,04,10.20
2016,04,11,00,05,10.20
2016,04,11,00,06,10.20
2016,04,11,00,07,10.20
2016,04,11,00,08,10.20
2016,04,11,00,09,10.20
2016,04,11,00,10,10.20
2016,04,11,00,11,10.20
2016,04,11,00,12,10.20
2016,04,11,00,13,10.20
2016,04,11,00,14,10.20
2016,04,11,00,15,10.20
2016,04,11,00,16,10.20
2016,04,11,00,17,10.20
2016,04,11,00,18,10.20
2016,04,11,00,19,10.20
2016,04,11,00,20,10.20
2016,04,11,00,21,10.20
2016,04,11,00,22,10.20
2016,04,11,00,23,10.30
2016,04,11,00,24,10.30
2016,04,11,00,25,10.30
2016,04,11,00,26,10.30
2016,04,11,00,27,10.30
2016,04,11,00,28,10.30
2016,04,11,00,29,10.30
2016,04,11,00,30,10.30
2016,04,11,00,31,10.30
2016,04,11,00,32,10.30
2016,04,11,00,33,10.30
2016,04,11,00,34,10.30
2016,04,11,00,35,10.40
2016,04,11,00,36,10.40
2016,04,11,00,37,10.30
2016,04,11,00,38,10.30
2016,04,11,00,39,10.30
2016,04,11,00,40,10.30
2016,04,11,00,41,10.30
2016,04,11,00,42,10.30
2016,04,11,00,43,10.30
2016,04,11,00,44,10.30
2016,04,11,00,45,10.30
2016,04,11,00,46,10.30
2016,04,11,00,47,10.20
2016,04,11,00,48,10.20
2016,04,11,00,49,10.20
2016,04,11,00,50,10.20
2016,04,11,00,51,10.20
2016,04,11,00,52,10.20
2016,04,11,00,53,10.20
2016,04,11,00,54,10.20
2016,04,11,00,55,10.20
2016,04,11,00,56,10.20
2016,04,11,00,57,10.20
2016,04,11,00,58,10.20
2016,04,11,00,59,10.20
2016,04,11,01,00,10.20
2016,04,11,01,01,10.20
2016,04,11,01,02,10.20
2016,04,11,01,03,10.20
2016,04,11,01,04,10.20
2016,04,11,01,05,10.20
2016,04,11,01,06,10.20
2016,04,11,01,07,10.20
2016,04,11,01,08,10.10
2016,04,11,01,09,10.10
2016,04,11,01,10,10.10
2016,04,11,01,11,10.20
2016,04,11,01,12,10.10
2016,04,11,01,13,10.10
2016,04,11,01,14,10.10
2016,04,11,01,15,10.10
2016,04,11,01,16,10.10
2016,04,11,01,17,10.10
2016,04,11,01,18,10.10
2016,04,11,01,19,10.10
2016,04,11,01,20,10.10
2016,04,11,01,21,10.10
2016,04,11,01,22,10.10
2016,04,11,01,23,10.10
2016,04,11,01,24,10.10
2016,04,11,01,25,10.10
2016,04,11,01,26,10.10
2016,04,11,01,27,10.10
2016,04,11,01,28,10.10
2016,04,11,01,29,10.10
2016,04,11,01,30,10.10
2016,04,11,01,31,10.00
2016,04,11,01,32,10.00
2016,04,11,01,33,10.00
2016,04,11,01,34,9.90
2016,04,11,01,35,9.90
2016,04,11,01,36,9.90
2016,04,11,01,37,9.80
2016,04,11,01,38,9.80
2016,04,11,01,39,9.80
2016,04,11,01,40,9.80
2016,04,11,01,41,9.80
2016,04,11,01,42,9.70
2016,04,11,01,43,9.70
2016,04,11,01,44,9.70
2016,04,11,01,45,9.70
2016,04,11,01,46,9.70
2016,04,11,01,47,9.60
2016,04,11,01,48,9.60
2016,04,11,01,49,9.60
2016,04,11,01,50,9.60
2016,04,11,01,51,9.50
2016,04,11,01,52,9.50
2016,04,11,01,53,9.50
2016,04,11,01,54,9.50
2016,04,11,01,55,9.50
2016,04,11,01,56,9.50
2016,04,11,01,57,9.50
2016,04,11,01,58,9.50
2016,04,11,01,59,9.50
2016,04,11,02,00,9.50
2016,04,11,02,01,9.40
2016,04,11,02,02,9.40
2016,04,11,02,03,9.40
2016,04,11,02,04,9.40
2016,04,11,02,05,9.40
2016,04,11,02,06,9.40
2016,04,11,02,07,9.30
2016,04,11,02,08,9.30
2016,04,11,02,09,9.30
2016,04,11,02,10,9.30
2016,04,11,02,11,9.30
2016,04,11,02,12,9.30
2016,04,11,02,13,9.30
2016,04,11,02,14,9.30
2016,04,11,02,15,9.30
2016,04,11,02,16,9.30
2016,04,11,02,17,9.30
2016,04,11,02,18,9.20
2016,04,11,02,19,9.20
2016,04,11,02,20,9.20
2016,04,11,02,21,9.20
2016,04,11,02,22,9.20
2016,04,11,02,23,9.20
2016,04,11,02,24,9.20
2016,04,11,02,25,9.10
2016,04,11,02,26,9.10
2016,04,11,02,27,9.10
2016,04,11,02,28,9.10
2016,04,11,02,29,9.10
2016,04,11,02,30,9.00
2016,04,11,02,31,9.00
2016,04,11,02,32,9.00
2016,04,11,02,33,9.00
2016,04,11,02,34,9.00
2016,04,11,02,35,9.00
2016,04,11,02,36,9.00
2016,04,11,02,37,8.90
2016,04,11,02,38,8.90
2016,04,11,02,39,8.90
2016,04,11,02,40,8.90
2016,04,11,02,41,8.90
2016,04,11,02,42,8.90
2016,04,11,02,43,8.90
2016,04,11,02,44,8.90
2016,04,11,02,45,8.90
2016,04,11,02,46,8.90
2016,04,11,02,47,8.90
2016,04,11,02,48,8.90
2016,04,11,02,49,8.90
2016,04,11,02,50,8.90
2016,04,11,02,51,8.80
2016,04,11,02,52,8.80
2016,04,11,02,53,8.80
2016,04,11,02,54,8.80
2016,04,11,02,55,8.80
2016,04,11,02,56,8.70
2016,04,11,02,57,8.70
2016,04,11,02,58,8.70
2016,04,11,02,59,8.60
2016,04,11,03,00,8.60
2016,04,11,03,01,8.60
2016,04,11,03,02,8.50
2016,04,11,03,06,8.50
2016,04,11,03,07,8.40
2016,04,11,03,08,8.40
2016,04,11,03,09,8.40
2016,04,11,03,10,8.40
2016,04,11,03,11,8.40
2016,04,11,03,12,8.40
2016,04,11,03,13,8.30
2016,04,11,03,14,8.30
2016,04,11,03,15,8.30
2016,04,11,03,16,8.30
2016,04,11,03,17,8.20
2016,04,11,03,18,8.20
2016,04,11,03,19,8.20
2016,04,11,03,20,8.10
2016,04,11,03,21,8.10
2016,04,11,03,22,8.10
2016,04,11,03,23,8.10
2016,04,11,03,24,8.10
2016,04,11,03,25,8.00
2016,04,11,03,26,8.00
2016,04,11,03,27,8.00
2016,04,11,03,28,8.00
2016,04,11,03,29,8.00
2016,04,11,03,30,8.00
2016,04,11,03,31,8.00
2016,04,11,03,32,8.00
2016,04,11,03,33,7.90
2016,04,11,03,34,8.00
2016,04,11,03,35,7.90
2016,04,11,03,36,7.90
2016,04,11,03,37,7.90
2016,04,11,03,38,8.00
2016,04,11,03,39,8.00
2016,04,11,03,40,8.00
2016,04,11,03,41,8.00
2016,04,11,03,42,8.00
2016,04,11,03,43,8.00
2016,04,11,03,44,8.10
2016,04,11,03,45,8.10
2016,04,11,03,46,8.10
2016,04,11,03,47,8.10
2016,04,11,03,48,8.10
2016,04,11,03,49,8.10
2016,04,11,03,50,8.10
2016,04,11,03,51,8.10
2016,04,11,03,52,8.10
2016,04,11,03,53,8.10
2016,04,11,03,54,8.20
2016,04,11,03,55,8.20
2016,04,11,03,56,8.20
2016,04,11,03,57,8.20
2016,04,11,03,58,8.20
2016,04,11,03,59,8.20
2016,04,11,04,00,8.20
2016,04,11,04,01,8.20
2016,04,11,04,02,8.20
2016,04,11,04,03,8.20
2016,04,11,04,04,8.30
2016,04,11,04,05,8.30
2016,04,11,04,06,8.30
2016,04,11,04,07,8.30
2016,04,11,04,08,8.30
2016,04,11,04,09,8.30
2016,04,11,04,10,8.40
2016,04,11,04,11,8.30
2016,04,11,04,12,8.30
2016,04,11,04,13,8.30
2016,04,11,04,14,8.30
2016,04,11,04,15,8.30
2016,04,11,04,16,8.30
2016,04,11,04,17,8.30
2016,04,11,04,18,8.30
2016,04,11,04,19,8.30
2016,04,11,04,20,8.30
2016,04,11,04,21,8.30
2016,04,11,04,22,8.20
2016,04,11,04,23,8.20
2016,04,11,04,24,8.20
2016,04,11,04,25,8.20
2016,04,11,04,26,8.20
2016,04,11,04,27,8.20
2016,04,11,04,28,8.20
2016,04,11,04,29,8.20
2016,04,11,04,30,8.10
2016,04,11,04,31,8.10
2016,04,11,04,32,8.10
2016,04,11,04,33,8.10
2016,04,11,04,34,8.10
2016,04,11,04,35,8.10
2016,04,11,04,36,8.10
2016,04,11,04,37,8.10
2016,04,11,04,38,8.10
2016,04,11,04,39,8.10
2016,04,11,04,40,8.10
2016,04,11,04,41,8.10
2016,04,11,04,42,8.10
2016,04,11,04,43,8.10
2016,04,11,04,44,8.10
2016,04,11,04,45,8.00
2016,04,11,04,46,8.00
2016,04,11,04,47,8.00
2016,04,11,04,48,8.00
2016,04,11,04,49,8.00
2016,04,11,04,50,8.00
2016,04,11,04,51,8.00
2016,04,11,04,52,8.00
2016,04,11,04,53,8.00
2016,04,11,04,54,8.00
2016,04,11,04,55,8.00
2016,04,11,04,56,8.00
2016,04,11,04,57,8.00
2016,04,11,04,58,7.90
2016,04,11,04,59,7.90
2016,04,11,05,00,7.90
2016,04,11,05,01,7.90
2016,04,11,05,02,7.90
2016,04,11,05,03,7.80
2016,04,11,05,04,7.80
2016,04,11,05,05,7.80
2016,04,11,05,06,7.80
2016,04,11,05,07,7.80
2016,04,11,05,08,7.80
2016,04,11,05,09,7.80
2016,04,11,05,10,7.90
2016,04,11,05,11,7.90
2016,04,11,05,12,7.90
2016,04,11,05,13,7.90
2016,04,11,05,14,8.00
2016,04,11,05,15,8.00
2016,04,11,05,16,7.90
2016,04,11,05,17,7.90
2016,04,11,05,18,7.90
2016,04,11,05,19,7.90
2016,04,11,05,20,7.90
2016,04,11,05,21,7.80
2016,04,11,05,22,7.90
2016,04,11,05,23,7.90
2016,04,11,05,24,7.90
2016,04,11,05,25,8.00
2016,04,11,05,26,8.00
2016,04,11,05,27,8.00
2016,04,11,05,28,8.10
2016,04,11,05,29,8.10
2016,04,11,05,30,8.00
2016,04,11,05,31,8.10
2016,04,11,05,32,8.10
2016,04,11,05,33,8.10
2016,04,11,05,34,8.10
2016,04,11,05,35,8.10
2016,04,11,05,36,8.00
2016,04,11,05,37,8.00
2016,04,11,05,38,7.90
2016,04,11,05,39,7.90
2016,04,11,05,40,7.90
2016,04,11,05,41,7.90
2016,04,11,05,42,7.80
2016,04,11,05,43,7.90
2016,04,11,05,44,7.90
2016,04,11,05,45,8.00
2016,04,11,05,46,8.10
2016,04,11,05,47,8.20
2016,04,11,05,48,8.30
2016,04,11,05,49,8.40
2016,04,11,05,50,8.50
2016,04,11,05,51,8.60
2016,04,11,05,52,8.60
2016,04,11,05,53,8.60
2016,04,11,05,54,8.50
2016,04,11,05,55,8.50
2016,04,11,05,56,8.40
2016,04,11,05,57,8.40
2016,04,11,05,58,8.30
2016,04,11,05,59,8.30
2016,04,11,06,00,8.20
2016,04,11,06,01,8.10
2016,04,11,06,02,8.10
2016,04,11,06,03,8.00
2016,04,11,06,04,8.00
2016,04,11,06,05,7.90
2016,04,11,06,06,7.90
2016,04,11,06,07,7.90
2016,04,11,06,08,7.90
2016,04,11,06,09,7.90
2016,04,11,06,10,7.80
2016,04,11,06,11,7.90
2016,04,11,06,12,7.80
2016,04,11,06,13,7.80
2016,04,11,06,14,7.90
2016,04,11,06,15,7.90
2016,04,11,06,16,8.00
2016,04,11,06,17,8.00
2016,04,11,06,18,8.10
2016,04,11,06,19,8.10
2016,04,11,06,20,8.10
2016,04,11,06,21,8.10
2016,04,11,06,22,8.20
2016,04,11,06,23,8.20
2016,04,11,06,24,8.20
2016,04,11,06,25,8.30
2016,04,11,06,26,8.30
2016,04,11,06,27,8.30
2016,04,11,06,28,8.30
2016,04,11,06,29,8.20
2016,04,11,06,30,8.20
2016,04,11,06,31,8.20
2016,04,11,06,32,8.20
2016,04,11,06,33,8.20
2016,04,11,06,34,8.30
2016,04,11,06,35,8.30
2016,04,11,06,36,8.40
2016,04,11,06,37,8.50
2016,04,11,06,38,8.60
2016,04,11,06,39,8.70
2016,04,11,06,40,8.80
2016,04,11,06,41,8.90
2016,04,11,06,42,8.90
2016,04,11,06,43,9.00
2016,04,11,06,44,9.00
2016,04,11,06,45,9.10
2016,04,11,06,46,9.10
2016,04,11,06,47,9.10
2016,04,11,06,48,9.10
2016,04,11,06,49,9.10
2016,04,11,06,50,9.10
2016,04,11,06,51,9.20
2016,04,11,06,52,9.20
2016,04,11,06,53,9.20
2016,04,11,06,54,9.20
2016,04,11,06,55,9.20
2016,04,11,06,56,9.20
2016,04,11,06,57,9.20
2016,04,11,06,58,9.20
2016,04,11,06,59,9.20
2016,04,11,07,00,9.20
2016,04,11,07,01,9.20
2016,04,11,07,02,9.20
2016,04,11,07,03,9.20
2016,04,11,07,04,9.20
2016,04,11,07,05,9.20
2016,04,11,07,06,9.20
2016,04,11,07,07,9.20
2016,04,11,07,08,9.20
2016,04,11,07,09,9.20
2016,04,11,07,10,9.20
2016,04,11,07,11,9.20
2016,04,11,07,12,9.10
2016,04,11,07,13,9.10
2016,04,11,07,14,9.10
2016,04,11,07,15,9.10
2016,04,11,07,16,9.10
2016,04,11,07,17,9.10
2016,04,11,07,18,9.10
2016,04,11,07,19,9.10
2016,04,11,07,20,9.10
2016,04,11,07,21,9.00
2016,04,11,07,22,9.00
2016,04,11,07,23,9.00
2016,04,11,07,24,9.00
2016,04,11,07,25,9.00
2016,04,11,07,26,9.00
2016,04,11,07,27,9.00
2016,04,11,07,28,9.10
2016,04,11,07,29,9.10
2016,04,11,07,30,9.10
2016,04,11,07,31,9.10
2016,04,11,07,32,9.10
2016,04,11,07,33,9.10
2016,04,11,07,34,9.10
2016,04,11,07,35,9.10
2016,04,11,07,36,9.10
2016,04,11,07,37,9.10
2016,04,11,07,38,9.10
2016,04,11,07,39,9.10
2016,04,11,07,40,9.10
2016,04,11,07,41,9.10
2016,04,11,07,42,9.10
2016,04,11,07,43,9.10
2016,04,11,07,44,9.10
2016,04,11,07,45,9.10
2016,04,11,07,46,9.20
2016,04,11,07,47,9.20
2016,04,11,07,48,9.20
2016,04,11,07,49,9.20
2016,04,11,07,50,9.20
2016,04,11,07,51,9.20
2016,04,11,07,52,9.20
2016,04,11,07,53,9.20
2016,04,11,07,54,9.20
2016,04,11,07,55,9.20
2016,04,11,07,56,9.30
2016,04,11,07,57,9.30
2016,04,11,07,58,9.30
2016,04,11,07,59,9.40
2016,04,11,08,00,9.40
2016,04,11,08,01,9.50
2016,04,11,08,02,9.60
2016,04,11,08,03,9.60
2016,04,11,08,04,9.70
2016,04,11,08,05,9.70
2016,04,11,08,06,9.70
2016,04,11,08,07,9.80
2016,04,11,08,08,9.80
2016,04,11,08,09,9.80
2016,04,11,08,10,9.90
2016,04,11,08,11,9.90
2016,04,11,08,12,9.90
2016,04,11,08,13,9.90
2016,04,11,08,14,10.00
2016,04,11,08,15,10.00
2016,04,11,08,16,10.00
2016,04,11,08,17,10.00
2016,04,11,08,18,10.00
2016,04,11,08,19,10.00
2016,04,11,08,20,10.00
2016,04,11,08,21,10.00
2016,04,11,08,22,10.00
2016,04,11,08,23,10.00
2016,04,11,08,24,10.00
2016,04,11,08,25,9.90
2016,04,11,08,26,10.00
2016,04,11,08,27,10.00
2016,04,11,08,28,10.00
2016,04,11,08,29,10.00
2016,04,11,08,30,10.00
2016,04,11,08,31,10.10
2016,04,11,08,32,10.10
2016,04,11,08,33,10.10
2016,04,11,08,34,10.10
2016,04,11,08,35,10.20
2016,04,11,08,36,10.20
2016,04,11,08,37,10.20
2016,04,11,08,38,10.20
2016,04,11,08,39,10.20
2016,04,11,08,40,10.20
2016,04,11,08,41,10.20
2016,04,11,08,42,10.20
2016,04,11,08,43,10.20
2016,04,11,08,44,10.20
2016,04,11,08,45,10.20
2016,04,11,08,46,10.20
2016,04,11,08,47,10.20
2016,04,11,08,48,10.20
2016,04,11,08,49,10.20
2016,04,11,08,50,10.20
2016,04,11,08,51,10.20
2016,04,11,08,52,10.20
2016,04,11,08,53,10.20
2016,04,11,08,54,10.20
2016,04,11,08,55,10.20
2016,04,11,08,56,10.20
2016,04,11,08,57,10.30
2016,04,11,08,58,10.30
2016,04,11,08,59,10.30
2016,04,11,09,00,10.30
2016,04,11,09,01,10.30
2016,04,11,09,02,10.30
2016,04,11,09,03,10.30
2016,04,11,09,04,10.30
2016,04,11,09,05,10.30
2016,04,11,09,06,10.30
2016,04,11,09,07,10.30
2016,04,11,09,08,10.30
2016,04,11,09,09,10.30
2016,04,11,09,10,10.30
2016,04,11,09,11,10.30
2016,04,11,09,12,10.30
2016,04,11,09,13,10.30
2016,04,11,09,14,10.30
2016,04,11,09,15,10.30
2016,04,11,09,16,10.30
2016,04,11,09,17,10.40
2016,04,11,09,18,10.40
2016,04,11,09,19,10.40
2016,04,11,09,20,10.40
2016,04,11,09,21,10.50
2016,04,11,09,22,10.50
2016,04,11,09,23,10.60
2016,04,11,09,24,10.70
2016,04,11,09,25,10.70
2016,04,11,09,26,10.80
2016,04,11,09,27,10.90
2016,04,11,09,28,11.00
2016,04,11,09,29,11.10
2016,04,11,09,30,11.20
2016,04,11,09,31,11.30
2016,04,11,09,32,11.40
2016,04,11,09,33,11.50
2016,04,11,09,34,11.60
2016,04,11,09,35,11.70
2016,04,11,09,36,11.80
2016,04,11,09,37,11.90
2016,04,11,09,38,11.90
2016,04,11,09,39,11.90
2016,04,11,09,40,12.00
2016,04,11,09,41,12.20
2016,04,11,09,42,12.20
2016,04,11,09,43,12.30
2016,04,11,09,44,12.30
2016,04,11,09,45,12.30
2016,04,11,09,46,12.40
2016,04,11,09,47,12.40
2016,04,11,09,48,12.40
2016,04,11,09,49,12.50
2016,04,11,09,50,12.60
2016,04,11,09,51,12.70
2016,04,11,09,52,12.80
2016,04,11,09,53,12.80
2016,04,11,09,54,12.80
2016,04,11,09,55,12.90
2016,04,11,09,56,12.90
2016,04,11,09,57,13.00
2016,04,11,09,58,13.00
2016,04,11,09,59,13.00
2016,04,11,10,00,13.10
2016,04,11,10,01,13.10
2016,04,11,10,02,13.20
2016,04,11,10,03,13.20
2016,04,11,10,04,13.30
2016,04,11,10,05,13.30
2016,04,11,10,06,13.30
2016,04,11,10,07,13.30
2016,04,11,10,08,13.20
2016,04,11,10,09,13.20
2016,04,11,10,10,13.10
2016,04,11,10,11,13.10
2016,04,11,10,12,13.10
2016,04,11,10,13,13.10
2016,04,11,10,14,13.10
2016,04,11,10,15,13.00
2016,04,11,10,16,13.00
2016,04,11,10,17,12.90
2016,04,11,10,18,12.90
2016,04,11,10,19,12.80
2016,04,11,10,20,12.80
2016,04,11,10,21,12.80
2016,04,11,10,22,12.80
2016,04,11,10,23,12.70
2016,04,11,10,24,12.60
2016,04,11,10,25,12.50
2016,04,11,10,26,12.40
2016,04,11,10,27,12.40
2016,04,11,10,28,12.40
2016,04,11,10,29,12.40
2016,04,11,10,30,12.40
2016,04,11,10,31,12.40
2016,04,11,10,32,12.30
2016,04,11,10,33,12.30
2016,04,11,10,34,12.30
2016,04,11,10,35,12.30
2016,04,11,10,36,12.30
2016,04,11,10,37,12.40
2016,04,11,10,38,12.40
2016,04,11,10,39,12.40
2016,04,11,10,40,12.40
2016,04,11,10,41,12.40
2016,04,11,10,42,12.50
2016,04,11,10,43,12.50
2016,04,11,10,44,12.40
2016,04,11,10,45,12.30
2016,04,11,10,46,12.20
2016,04,11,10,47,12.10
2016,04,11,10,48,12.00
2016,04,11,10,49,12.00
2016,04,11,10,50,12.00
2016,04,11,10,51,12.00
2016,04,11,10,52,12.00
2016,04,11,10,53,12.10
2016,04,11,10,54,12.10
2016,04,11,10,55,12.10
2016,04,11,10,56,12.20
2016,04,11,10,57,12.20
2016,04,11,10,58,12.20
2016,04,11,10,59,12.20
2016,04,11,11,00,12.10
2016,04,11,11,01,12.00
2016,04,11,11,02,11.80
2016,04,11,11,03,11.70
2016,04,11,11,04,11.70
2016,04,11,11,05,11.70
2016,04,11,11,06,11.80
2016,04,11,11,07,11.90
2016,04,11,11,08,12.00
2016,04,11,11,09,12.20
2016,04,11,11,10,12.30
2016,04,11,11,11,12.40
2016,04,11,11,12,12.50
2016,04,11,11,13,12.60
2016,04,11,11,14,12.70
2016,04,11,11,15,12.80
2016,04,11,11,16,12.90
2016,04,11,11,17,13.00
2016,04,11,11,18,13.00
2016,04,11,11,19,13.10
2016,04,11,11,20,13.10
2016,04,11,11,21,13.00
2016,04,11,11,22,13.00
2016,04,11,11,23,13.00
2016,04,11,11,24,12.90
2016,04,11,11,25,12.80
2016,04,11,11,26,12.70
2016,04,11,11,27,12.70
2016,04,11,11,28,12.70
2016,04,11,11,29,12.60
2016,04,11,11,30,12.60
2016,04,11,11,31,12.60
2016,04,11,11,32,12.60
2016,04,11,11,33,12.60
2016,04,11,11,34,12.60
2016,04,11,11,35,12.60
2016,04,11,11,36,12.70
2016,04,11,11,37,12.70
2016,04,11,11,38,12.80
2016,04,11,11,39,12.90
2016,04,11,11,40,12.90
2016,04,11,11,41,12.90
2016,04,11,11,42,13.00
2016,04,11,11,43,13.00
2016,04,11,11,44,13.10
2016,04,11,11,45,13.10
2016,04,11,11,46,13.20
2016,04,11,11,47,13.20
2016,04,11,11,48,13.30
2016,04,11,11,49,13.30
2016,04,11,11,50,13.40
2016,04,11,11,51,13.40
2016,04,11,11,52,13.50
2016,04,11,11,53,13.50
2016,04,11,11,54,13.40
2016,04,11,11,55,13.40
2016,04,11,11,56,13.30
2016,04,11,11,57,13.20
2016,04,11,11,58,13.10
2016,04,11,11,59,13.00
2016,04,11,12,00,12.90
2016,04,11,12,01,12.80
2016,04,11,12,02,12.80
2016,04,11,12,03,12.80
2016,04,11,12,04,12.80
2016,04,11,12,05,12.80
2016,04,11,12,06,12.80
2016,04,11,12,07,12.80
2016,04,11,12,08,12.80
2016,04,11,12,09,12.90
2016,04,11,12,10,13.00
2016,04,11,12,11,13.00
2016,04,11,12,12,13.00
2016,04,11,12,13,13.10
2016,04,11,12,14,13.20
2016,04,11,12,15,13.20
2016,04,11,12,16,13.30
2016,04,11,12,17,13.40
2016,04,11,12,18,13.50
2016,04,11,12,19,13.50
2016,04,11,12,20,13.50
2016,04,11,12,21,13.50
2016,04,11,12,22,13.50
2016,04,11,12,23,13.50
2016,04,11,12,24,13.50
2016,04,11,12,25,13.30
2016,04,11,12,26,13.00
2016,04,11,12,27,12.90
2016,04,11,12,28,12.70
2016,04,11,12,29,12.70
2016,04,11,12,30,12.70
2016,04,11,12,31,12.60
2016,04,11,12,32,12.50
2016,04,11,12,33,12.50
2016,04,11,12,34,12.50
2016,04,11,12,35,12.40
2016,04,11,12,36,12.30
2016,04,11,12,37,12.30
2016,04,11,12,38,12.30
2016,04,11,12,39,12.30
2016,04,11,12,40,12.20
2016,04,11,12,41,12.10
2016,04,11,12,42,12.10
2016,04,11,12,43,12.00
2016,04,11,12,44,11.90
2016,04,11,12,45,11.80
2016,04,11,12,46,11.80
2016,04,11,12,47,11.80
2016,04,11,12,48,11.70
2016,04,11,12,49,11.60
2016,04,11,12,50,11.60
2016,04,11,12,51,11.50
2016,04,11,12,52,11.50
2016,04,11,12,53,11.40
2016,04,11,12,54,11.40
2016,04,11,12,55,11.40
2016,04,11,12,56,11.50
2016,04,11,12,57,11.50
2016,04,11,12,58,11.60
2016,04,11,12,59,11.70
2016,04,11,13,00,11.90
2016,04,11,13,01,12.00
2016,04,11,13,02,12.20
2016,04,11,13,03,12.20
2016,04,11,13,04,12.20
2016,04,11,13,05,12.20
2016,04,11,13,06,12.20
2016,04,11,13,07,12.10
2016,04,11,13,08,12.00
2016,04,11,13,09,12.00
2016,04,11,13,10,12.00
2016,04,11,13,11,12.20
2016,04,11,13,12,12.20
2016,04,11,13,13,12.20
2016,04,11,13,14,12.10
2016,04,11,13,15,12.00
2016,04,11,13,16,12.00
2016,04,11,13,17,11.90
2016,04,11,13,18,11.90
2016,04,11,13,19,11.90
2016,04,11,13,20,11.80
2016,04,11,13,21,11.80
2016,04,11,13,22,11.80
2016,04,11,13,23,11.80
2016,04,11,13,24,11.80
2016,04,11,13,25,11.80
2016,04,11,13,26,11.80
2016,04,11,13,27,11.70
2016,04,11,13,28,11.70
2016,04,11,13,29,11.60
2016,04,11,13,30,11.60
2016,04,11,13,31,11.60
2016,04,11,13,32,11.60
2016,04,11,13,33,11.60
2016,04,11,13,34,11.60
2016,04,11,13,35,11.60
2016,04,11,13,36,11.70
2016,04,11,13,37,11.80
2016,04,11,13,38,11.80
2016,04,11,13,39,11.80
2016,04,11,13,40,11.90
2016,04,11,13,41,11.90
2016,04,11,13,42,12.00
2016,04,11,13,43,12.00
2016,04,11,13,44,12.00
2016,04,11,13,45,12.10
2016,04,11,13,46,12.10
2016,04,11,13,47,12.10
2016,04,11,13,48,12.10
2016,04,11,13,49,12.00
2016,04,11,13,50,12.00
2016,04,11,13,51,12.00
2016,04,11,13,52,12.00
2016,04,11,13,53,12.10
2016,04,11,13,54,12.10
2016,04,11,13,55,12.10
2016,04,11,13,56,12.00
2016,04,11,13,57,12.00
2016,04,11,13,58,12.00
2016,04,11,13,59,12.00
2016,04,11,14,00,11.90
2016,04,11,14,01,11.90
2016,04,11,14,02,11.90
2016,04,11,14,03,11.90
2016,04,11,14,04,12.00
2016,04,11,14,05,12.00
2016,04,11,14,06,11.90
2016,04,11,14,07,11.90
2016,04,11,14,08,11.80
2016,04,11,14,09,11.80
2016,04,11,14,10,11.80
2016,04,11,14,11,11.80
2016,04,11,14,12,11.90
2016,04,11,14,13,11.90
2016,04,11,14,14,12.00
2016,04,11,14,15,11.90
2016,04,11,14,16,11.90
2016,04,11,14,17,12.00
2016,04,11,14,18,11.90
2016,04,11,14,19,11.90
2016,04,11,14,20,11.80
2016,04,11,14,21,11.90
2016,04,11,14,22,11.90
2016,04,11,14,23,12.00
2016,04,11,14,24,12.00
2016,04,11,14,25,12.10
2016,04,11,14,26,12.10
2016,04,11,14,27,12.10
2016,04,11,14,28,12.10
2016,04,11,14,29,12.20
2016,04,11,14,30,12.20
2016,04,11,14,31,12.30
2016,04,11,14,32,12.30
2016,04,11,14,33,12.20
2016,04,11,14,34,12.10
2016,04,11,14,35,12.10
2016,04,11,14,36,12.00
2016,04,11,14,37,12.00
2016,04,11,14,38,12.00
2016,04,11,14,39,12.10
2016,04,11,14,40,12.10
2016,04,11,14,41,12.10
2016,04,11,14,42,12.10
2016,04,11,14,43,12.10
2016,04,11,14,44,12.10
2016,04,11,14,45,12.10
2016,04,11,14,46,12.10
2016,04,11,14,47,12.10
2016,04,11,14,48,12.10
2016,04,11,14,49,12.10
2016,04,11,14,50,12.10
2016,04,11,14,51,12.10
2016,04,11,14,52,12.10
2016,04,11,14,53,12.10
2016,04,11,14,54,12.10
2016,04,11,14,55,12.10
2016,04,11,14,56,12.10
2016,04,11,14,57,12.10
2016,04,11,14,58,12.10
2016,04,11,14,59,12.10
2016,04,11,15,00,12.10
2016,04,11,15,01,12.10
2016,04,11,15,02,12.10
2016,04,11,15,03,12.10
2016,04,11,15,04,12.20
2016,04,11,15,05,12.20
2016,04,11,15,06,12.10
2016,04,11,15,07,12.10
2016,04,11,15,08,12.10
2016,04,11,15,09,12.10
2016,04,11,15,10,12.10
2016,04,11,15,11,12.00
2016,04,11,15,12,12.10
2016,04,11,15,13,12.10
2016,04,11,15,14,12.00
2016,04,11,15,15,12.00
2016,04,11,15,16,12.00
2016,04,11,15,17,12.00
2016,04,11,15,18,12.10
2016,04,11,15,19,12.10
2016,04,11,15,20,12.10
2016,04,11,15,21,12.10
2016,04,11,15,22,12.10
2016,04,11,15,23,12.10
2016,04,11,15,24,12.10
2016,04,11,15,25,12.10
2016,04,11,15,26,12.10
2016,04,11,15,27,12.20
2016,04,11,15,28,12.20
2016,04,11,15,29,12.20
2016,04,11,15,30,12.20
2016,04,11,15,31,12.20
2016,04,11,15,32,12.20
2016,04,11,15,33,12.20
2016,04,11,15,34,12.20
2016,04,11,15,35,12.20
2016,04,11,15,36,12.20
2016,04,11,15,37,12.20
2016,04,11,15,38,12.20
2016,04,11,15,39,12.20
2016,04,11,15,40,12.20
2016,04,11,15,41,12.20
2016,04,11,15,42,12.20
2016,04,11,15,43,12.20
2016,04,11,15,44,12.10
2016,04,11,15,45,12.10
2016,04,11,15,46,12.10
2016,04,11,15,47,12.00
2016,04,11,15,48,12.00
2016,04,11,15,49,12.00
2016,04,11,15,50,11.90
2016,04,11,15,51,11.90
2016,04,11,15,52,11.90
2016,04,11,15,53,11.90
2016,04,11,15,54,11.90
2016,04,11,15,55,11.90
2016,04,11,15,56,11.90
2016,04,11,15,57,11.90
2016,04,11,15,58,11.90
2016,04,11,15,59,11.90
2016,04,11,16,00,11.90
2016,04,11,16,01,11.90
2016,04,11,16,02,11.90
2016,04,11,16,03,11.90
2016,04,11,16,04,11.90
2016,04,11,16,05,11.90
2016,04,11,16,06,11.90
2016,04,11,16,07,12.00
2016,04,11,16,08,12.00
2016,04,11,16,09,11.90
2016,04,11,16,10,11.90
2016,04,11,16,11,11.90
2016,04,11,16,12,11.90
2016,04,11,16,13,11.90
2016,04,11,16,14,11.80
2016,04,11,16,15,11.80
2016,04,11,16,16,11.80
2016,04,11,16,17,11.80
2016,04,11,16,18,11.80
2016,04,11,16,19,11.80
2016,04,11,16,20,11.70
2016,04,11,16,21,11.70
2016,04,11,16,22,11.70
2016,04,11,16,23,11.60
2016,04,11,16,24,11.60
2016,04,11,16,25,11.60
2016,04,11,16,26,11.60
2016,04,11,16,27,11.60
2016,04,11,16,28,11.60
2016,04,11,16,29,11.60
2016,04,11,16,30,11.60
2016,04,11,16,31,11.60
2016,04,11,16,32,11.50
2016,04,11,16,33,11.50
2016,04,11,16,34,11.50
2016,04,11,16,35,11.40
2016,04,11,16,36,11.30
2016,04,11,16,37,11.30
2016,04,11,16,38,11.30
2016,04,11,16,39,11.30
2016,04,11,16,40,11.30
2016,04,11,16,41,11.30
2016,04,11,16,42,11.20
2016,04,11,16,43,11.20
2016,04,11,16,44,11.20
2016,04,11,16,45,11.20
2016,04,11,16,46,11.20
2016,04,11,16,47,11.10
2016,04,11,16,48,11.10
2016,04,11,16,49,11.10
2016,04,11,16,50,11.10
2016,04,11,16,51,11.10
2016,04,11,16,52,11.10
2016,04,11,16,53,11.10
2016,04,11,16,54,11.10
2016,04,11,16,55,11.10
2016,04,11,16,56,11.00
2016,04,11,16,57,11.10
2016,04,11,16,58,11.10
2016,04,11,16,59,11.10
2016,04,11,17,00,11.10
2016,04,11,17,01,11.20
2016,04,11,17,02,11.20
2016,04,11,17,03,11.20
2016,04,11,17,04,11.20
2016,04,11,17,05,11.30
2016,04,11,17,06,11.30
2016,04,11,17,07,11.30
2016,04,11,17,08,11.30
2016,04,11,17,09,11.40
2016,04,11,17,10,11.40
2016,04,11,17,11,11.40
2016,04,11,17,12,11.50
2016,04,11,17,13,11.50
2016,04,11,17,14,11.60
2016,04,11,17,15,11.60
2016,04,11,17,16,11.70
2016,04,11,17,17,11.70
2016,04,11,17,18,11.70
2016,04,11,17,19,11.70
2016,04,11,17,20,11.70
2016,04,11,17,21,11.70
2016,04,11,17,22,11.70
2016,04,11,17,23,11.70
2016,04,11,17,24,11.70
2016,04,11,17,25,11.80
2016,04,11,17,26,11.80
2016,04,11,17,27,11.80
2016,04,11,17,28,11.90
2016,04,11,17,29,12.00
2016,04,11,17,30,12.00
2016,04,11,17,31,12.10
2016,04,11,17,32,12.20
2016,04,11,17,33,12.20
2016,04,11,17,34,12.20
2016,04,11,17,35,12.30
2016,04,11,17,36,12.30
2016,04,11,17,37,12.30
2016,04,11,17,38,12.30
2016,04,11,17,39,12.30